QPF
0.02 0.03 0.05 0.05 0.02 0.02 0.02 0.02 0.03 0.03 0.02 0.01 0.01 0.01 0.01 0.02 0.03 0.01 0.01 0.02 0.03 0.03 0.04 0.05 0.04 0.03 0.03 0.03 0.03 0.03 0.04 0.05 0.05 0.05 0.06 0.07 0.07 0.07
0.02 0.03 0.04 0.05 0.04 0.02 0.02 0.02 0.03 0.03 0.02 0.01 0.01 0.01 0.01 0.01 0.03 0.02 0.02 0.02 0.03 0.03 0.03 0.04 0.04 0.03 0.03 0.03 0.02 0.02 0.02 0.03 0.04 0.05 0.06 0.06 0.06 0.07
0.02 0.02 0.03 0.03 0.05 0.03 0.02 0.03 0.03 0.02 0.03 0.02 0.01 0.02 0.01 0.01 0.02 0.03 0.03 0.02 0.02 0.02 0.02 0.03 0.03 0.04 0.04 0.03 0.02 0.02 0.02 0.03 0.04 0.05 0.05 0.05 0.05 0.05
0.02 0.01 0.02 0.03 0.04 0.02 0.02 0.02 0.02 0.02 0.03 0.03 0.02 0.02 0.02 0.01 0.01 0.02 0.03 0.03 0.02 0.02 0.02 0.02 0.03 0.04 0.03 0.03 0.03 0.03 0.03 0.03 0.03 0.03 0.03 0.04 0.04 0.04
0.01 0.01 0.02 0.02 0.02 0.01 0.01 0.01 0.01 0.01 0.01 0.02 0.02 0.02 0.02 0.02 0.02 0.01 0.01 0.02 0.01 0.02 0.02 0.02 0.03 0.03 0.03 0.02 0.03 0.03 0.03 0.03 0.02 0.02 0.02 0.02 0.02 0.02
0.01 0.01 0.01 0.02 0.01 0.01 0.01 0.01 0.01 0.02 0.02 0.02 0.02 0.02 0.02 0.02 0.02 0.01 0.01 0.01 0.01 0.01 0.01 0.02 0.02 0.02 0.02 0.02 0.02 0.02 0.02 0.01 0.01 0.01 0.01 0.00 0.00 0.00
0.01 0.01 0.01 0.01 0.01 0.01 0.01 0.01 0.01 0.01 0.03 0.03 0.03 0.02 0.02 0.02 0.01 0.01 0.01 0.01 0.01 0.01 0.01 0.01 0.00 0.00 0.01 0.01 0.01 0.01 0.01 0.00 0.00 0.00 0.00 0.00 0.00 0.00
0.02 0.02 0.01 0.01 0.01 0.02 0.02 0.02 0.02 0.01 0.02 0.03 0.03 0.03 0.02 0.02 0.02 0.01 0.01 0.01 0.01 0.01 0.01 0.01 0.00 0.00 0.00 0.00 0.00 0.00 0.00 0.00 0.00 0.00 0.00 0.00 0.00 0.00
0.02 0.02 0.01 0.01 0.01 0.01 0.01 0.01 0.01 0.02 0.02 0.02 0.02 0.02 0.02 0.03 0.02 0.01 0.01 0.01 0.01 0.00 0.00 0.00 0.00 0.00 0.00 0.00 0.00 0.00 0.00 0.00 0.00 0.00 0.00 0.00 0.00 0.00
0.01 0.01 0.02 0.02 0.01 0.01 0.01 0.01 0.01 0.01 0.02 0.02 0.02 0.02 0.02 0.02 0.02 0.02 0.01 0.01 0.01 0.00 0.00 0.00 0.00 0.00 0.00 0.00 0.00 0.00 0.00 0.00 0.00 0.00 0.00 0.00 0.00 0.00
0.00 0.00 0.01 0.02 0.01 0.01 0.01 0.01 0.01 0.01 0.02 0.03 0.03 0.02 0.02 0.01 0.01 0.01 0.01 0.01 0.01 0.01 0.01 0.00 0.00 0.00 0.00 0.00 0.00 0.00 0.00 0.00 0.00 0.00 0.00 0.00 0.00 0.00
0.00 0.00 0.01 0.01 0.01 0.01 0.01 0.01 0.01 0.01 0.01 0.02 0.02 0.02 0.01 0.01 0.01 0.01 0.01 0.01 0.01 0.01 0.01 0.01 0.00 0.00 0.00 0.00 0.00 0.00 0.00 0.00 0.00 0.00 0.00 0.00 0.00 0.00
0.01 0.00 0.01 0.01 0.01 0.01 0.01 0.01 0.02 0.02 0.01 0.01 0.01 0.01 0.01 0.01 0.01 0.01 0.02 0.01 0.01 0.01 0.00 0.00 0.00 0.00 0.00 0.00 0.00 0.00 0.00 0.00 0.00 0.00 0.00 0.00 0.00 0.00
0.01 0.01 0.01 0.01 0.01 0.01 0.01 0.02 0.02 0.02 0.01 0.01 0.01 0.01 0.01 0.01 0.01 0.01 0.02 0.02 0.01 0.01 0.00 0.00 0.00 0.00 0.00 0.00 0.00 0.00 0.00 0.00 0.00 0.00 0.00 0.00 0.00 0.00
0.01 0.02 0.01 0.01 0.01 0.01 0.01 0.02 0.01 0.01 0.01 0.01 0.01 0.01 0.00 0.01 0.01 0.01 0.01 0.01 0.01 0.00 0.00 0.00 0.00 0.00 0.00 0.00 0.00 0.00 0.00 0.00 0.00 0.00 0.00 0.00 0.00 0.00
0.01 0.01 0.01 0.01 0.01 0.01 0.01 0.01 0.01 0.01 0.01 0.01 0.01 0.00 0.00 0.00 0.00 0.01 0.01 0.00 0.00 0.00 0.00 0.00 0.00 0.00 0.00 0.00 0.00 0.00 0.00 0.00 0.00 0.00 0.00 0.00 0.00 0.00
0.01 0.01 0.01 0.00 0.00 0.01 0.01 0.01 0.01 0.01 0.01 0.01 0.00 0.00 0.00 0.00 0.00 0.00 0.01 0.00 0.00 0.00 0.00 0.00 0.00 0.00 0.00 0.00 0.00 0.00 0.00 0.00 0.00 0.00 0.00 0.00 0.00 0.00
0.01 0.01 0.01 0.00 0.00 0.00 0.01 0.00 0.00 0.00 0.00 0.00 0.00 0.00 0.00 0.00 0.00 0.00 0.00 0.00 0.00 0.00 0.00 0.00 0.00 0.00 0.00 0.00 0.00 0.00 0.00 0.00 0.00 0.00 0.00 0.00 0.00 0.00
0.00 0.00 0.00 0.00 0.00 0.00 0.00 0.00 0.00 0.00 0.00 0.00 0.00 0.00 0.00 0.00 0.00 0.00 0.00 0.00 0.00 0.00 0.00 0.00 0.00 0.00 0.00 0.00 0.00 0.00 0.00 0.00 0.00 0.00 0.00 0.00 0.00 0.00
0.00 0.00 0.00 0.00 0.00 0.00 0.00 0.00 0.00 0.00 0.00 0.00 0.00 0.00 0.00 0.00 0.00 0.00 0.00 0.00 0.00 0.00 0.00 0.00 0.00 0.00 0.00 0.00 0.00 0.00 0.00 0.00 0.00 0.00 0.00 0.00 0.00 0.00
0.00 0.00 0.00 0.00 0.00 0.00 0.00 0.00 0.00 0.00 0.00 0.00 0.00 0.00 0.00 0.00 0.00 0.00 0.00 0.00 0.00 0.00 0.00 0.00 0.00 0.00 0.00 0.00 0.00 0.00 0.00 0.00 0.00 0.00 0.00 0.00 0.00 0.00
0.00 0.00 0.00 0.00 0.00 0.00 0.00 0.00 0.00 0.00 0.00 0.00 0.00 0.00 0.00 0.00 0.00 0.00 0.00 0.00 0.00 0.00 0.00 0.00 0.00 0.00 0.00 0.00 0.00 0.00 0.00 0.00 0.00 0.00 0.00 0.00 0.00 0.00
0.00 0.00 0.00 0.00 0.00 0.00 0.00 0.00 0.00 0.00 0.00 0.00 0.00 0.00 0.00 0.00 0.00 0.00 0.00 0.00 0.00 0.00 0.00 0.00 0.00 0.00 0.00 0.00 0.00 0.00 0.00 0.00 0.00 0.00 0.00 0.00 0.00 0.00
MSLP
1018.36 1018.22 1018.12 1018.07 1018.08 1018.14 1018.27 1018.48 1018.75 1019.09 1019.48 1019.88 1020.24 1020.52 1020.66 1020.63 1020.41 1020.00 1019.43 1018.73 1017.97 1017.20 1016.48 1015.86 1015.38 1015.06 1014.92 1014.97 1015.21 1015.62 1016.20 1016.92 1017.76 1018.70 1019.70 1020.70 1021.68 1022.58
1018.24 1018.03 1017.86 1017.76 1017.71 1017.74 1017.85 1018.04 1018.33 1018.70 1019.13 1019.59 1020.03 1020.40 1020.65 1020.75 1020.67 1020.40 1019.97 1019.41 1018.77 1018.11 1017.49 1016.95 1016.52 1016.25 1016.14 1016.21 1016.45 1016.85 1017.41 1018.09 1018.88 1019.74 1020.64 1021.54 1022.38 1023.14
1018.14 1017.86 1017.63 1017.46 1017.36 1017.35 1017.43 1017.61 1017.89 1018.28 1018.75 1019.26 1019.78 1020.25 1020.62 1020.86 1020.93 1020.83 1020.57 1020.19 1019.71 1019.20 1018.69 1018.25 1017.91 1017.68 1017.60 1017.67 1017.89 1018.25 1018.75 1019.36 1020.05 1020.80 1021.57 1022.32 1023.01 1023.60
1018.09 1017.76 1017.47 1017.25 1017.10 1017.04 1017.09 1017.24 1017.52 1017.91 1018.40 1018.96 1019.53 1020.09 1020.57 1020.94 1021.17 1021.25 1021.17 1020.97 1020.67 1020.31 1019.95 1019.61 1019.34 1019.16 1019.10 1019.15 1019.33 1019.63 1020.04 1020.54 1021.12 1021.73 1022.35 1022.94 1023.47 1023.90
1018.11 1017.74 1017.41 1017.14 1016.95 1016.86 1016.87 1017.00 1017.26 1017.64 1018.13 1018.70 1019.32 1019.93 1020.50 1020.98 1021.35 1021.58 1021.68 1021.65 1021.52 1021.33 1021.09 1020.86 1020.66 1020.52 1020.45 1020.47 1020.59 1020.81 1021.12 1021.50 1021.94 1022.41 1022.89 1023.33 1023.71 1024.00
1018.19 1017.79 1017.44 1017.15 1016.93 1016.81 1016.79 1016.89 1017.12 1017.47 1017.94 1018.50 1019.12 1019.77 1020.40 1020.96 1021.43 1021.79 1022.03 1022.16 1022.18 1022.11 1022.00 1021.85 1021.71 1021.59 1021.51 1021.49 1021.54 1021.67 1021.87 1022.13 1022.45 1022.79 1023.14 1023.46 1023.72 1023.91
1018.30 1017.90 1017.54 1017.24 1017.01 1016.86 1016.81 1016.88 1017.07 1017.39 1017.82 1018.35 1018.96 1019.60 1020.24 1020.85 1021.39 1021.84 1022.18 1022.42 1022.55 1022.59 1022.57 1022.49 1022.39 1022.27 1022.18 1022.11 1022.09 1022.13 1022.24 1022.40 1022.61 1022.85 1023.10 1023.33 1023.51 1023.63
1018.41 1018.02 1017.67 1017.36 1017.12 1016.96 1016.89 1016.93 1017.09 1017.36 1017.75 1018.24 1018.80 1019.42 1020.05 1020.66 1021.22 1021.71 1022.11 1022.42 1022.63 1022.74 1022.77 1022.74 1022.66 1022.55 1022.43 1022.32 1022.25 1022.22 1022.25 1022.33 1022.46 1022.63 1022.81 1022.98 1023.12 1023.20
1018.49 1018.12 1017.78 1017.48 1017.24 1017.07 1016.99 1017.00 1017.12 1017.36 1017.70 1018.14 1018.65 1019.22 1019.81 1020.40 1020.95 1021.45 1021.87 1022.20 1022.44 1022.59 1022.65 1022.64 1022.57 1022.46 1022.32 1022.19 1022.07 1021.99 1021.96 1021.99 1022.07 1022.19 1022.33 1022.47 1022.58 1022.64
1018.53 1018.17 1017.84 1017.55 1017.32 1017.15 1017.06 1017.06 1017.16 1017.36 1017.66 1018.05 1018.52 1019.04 1019.58 1020.12 1020.64 1021.10 1021.51 1021.83 1022.07 1022.22 1022.28 1022.28 1022.21 1022.09 1021.95 1021.80 1021.66 1021.56 1021.50 1021.49 1021.54 1021.63 1021.74 1021.86 1021.96 1022.01
1018.54 1018.20 1017.88 1017.60 1017.36 1017.20 1017.10 1017.10 1017.18 1017.36 1017.64 1018.00 1018.42 1018.89 1019.38 1019.87 1020.33 1020.75 1021.11 1021.40 1021.61 1021.74 1021.79 1021.78 1021.71 1021.59 1021.45 1021.29 1021.15 1021.04 1020.97 1020.95 1020.97 1021.03 1021.12 1021.22 1021.29 1021.32
1018.56 1018.23 1017.91 1017.64 1017.41 1017.24 1017.15 1017.14 1017.23 1017.40 1017.66 1017.99 1018.38 1018.81 1019.25 1019.69 1020.09 1020.45 1020.76 1020.99 1021.16 1021.25 1021.28 1021.25 1021.18 1021.07 1020.93 1020.79 1020.66 1020.55 1020.48 1020.44 1020.44 1020.47 1020.52 1020.57 1020.60 1020.60
1018.64 1018.31 1018.00 1017.73 1017.50 1017.34 1017.25 1017.24 1017.32 1017.48 1017.73 1018.05 1018.41 1018.81 1019.21 1019.59 1019.94 1020.24 1020.48 1020.66 1020.78 1020.83 1020.84 1020.79 1020.72 1020.62 1020.50 1020.38 1020.26 1020.16 1020.08 1020.03 1019.99 1019.98 1019.97 1019.96 1019.92 1019.84
1018.80 1018.48 1018.17 1017.90 1017.68 1017.51 1017.42 1017.41 1017.48 1017.64 1017.88 1018.18 1018.52 1018.88 1019.24 1019.58 1019.88 1020.12 1020.30 1020.42 1020.49 1020.51 1020.48 1020.43 1020.36 1020.27 1020.17 1020.07 1019.97 1019.88 1019.79 1019.71 1019.63 1019.56 1019.47 1019.36 1019.24 1019.07
1019.04 1018.73 1018.44 1018.18 1017.95 1017.78 1017.68 1017.66 1017.72 1017.86 1018.08 1018.36 1018.67 1019.00 1019.32 1019.61 1019.85 1020.04 1020.17 1020.25 1020.27 1020.26 1020.22 1020.16 1020.09 1020.01 1019.94 1019.86 1019.77 1019.68 1019.58 1019.46 1019.33 1019.17 1018.99 1018.78 1018.55 1018.28
1019.33 1019.05 1018.78 1018.53 1018.31 1018.13 1018.02 1017.97 1018.01 1018.12 1018.30 1018.54 1018.82 1019.11 1019.38 1019.63 1019.82 1019.97 1020.05 1020.09 1020.08 1020.04 1019.99 1019.93 1019.87 1019.81 1019.75 1019.68 1019.61 1019.51 1019.38 1019.22 1019.02 1018.78 1018.50 1018.19 1017.84 1017.46
1019.60 1019.37 1019.13 1018.90 1018.68 1018.50 1018.36 1018.29 1018.29 1018.36 1018.49 1018.68 1018.91 1019.15 1019.38 1019.58 1019.74 1019.84 1019.89 1019.90 1019.87 1019.81 1019.75 1019.69 1019.63 1019.58 1019.53 1019.48 1019.40 1019.28 1019.13 1018.92 1018.65 1018.33 1017.96 1017.54 1017.09 1016.62
1019.78 1019.60 1019.40 1019.19 1018.99 1018.80 1018.65 1018.54 1018.50 1018.52 1018.60 1018.73 1018.91 1019.09 1019.28 1019.44 1019.56 1019.63 1019.65 1019.64 1019.59 1019.53 1019.46 1019.40 1019.34 1019.29 1019.24 1019.18 1019.09 1018.96 1018.76 1018.51 1018.18 1017.79 1017.33 1016.83 1016.30 1015.75
1019.79 1019.66 1019.51 1019.34 1019.15 1018.96 1018.80 1018.66 1018.58 1018.55 1018.58 1018.66 1018.78 1018.93 1019.07 1019.19 1019.28 1019.33 1019.34 1019.32 1019.26 1019.19 1019.11 1019.04 1018.98 1018.92 1018.86 1018.78 1018.66 1018.50 1018.27 1017.97 1017.59 1017.14 1016.62 1016.06 1015.47 1014.87
1019.59 1019.53 1019.42 1019.28 1019.12 1018.93 1018.76 1018.61 1018.49 1018.43 1018.43 1018.47 1018.56 1018.66 1018.78 1018.88 1018.95 1018.99 1018.99 1018.96 1018.90 1018.82 1018.73 1018.65 1018.57 1018.49 1018.40 1018.29 1018.14 1017.94 1017.67 1017.32 1016.90 1016.41 1015.85 1015.25 1014.63 1014.01
1019.20 1019.18 1019.11 1019.00 1018.86 1018.69 1018.52 1018.37 1018.25 1018.17 1018.15 1018.18 1018.24 1018.34 1018.44 1018.54 1018.61 1018.64 1018.64 1018.61 1018.54 1018.45 1018.35 1018.25 1018.14 1018.03 1017.90 1017.75 1017.56 1017.32 1017.01 1016.63 1016.17 1015.65 1015.07 1014.45 1013.82 1013.20
1018.64 1018.65 1018.61 1018.53 1018.41 1018.26 1018.11 1017.97 1017.86 1017.80 1017.78 1017.82 1017.89 1018.00 1018.11 1018.21 1018.28 1018.33 1018.33 1018.29 1018.22 1018.12 1018.01 1017.88 1017.73 1017.58 1017.41 1017.22 1016.98 1016.69 1016.35 1015.93 1015.45 1014.91 1014.32 1013.70 1013.07 1012.46
1017.98 1018.00 1017.97 1017.90 1017.80 1017.68 1017.55 1017.45 1017.37 1017.34 1017.36 1017.42 1017.52 1017.65 1017.78 1017.90 1017.99 1018.04 1018.06 1018.02 1017.94 1017.83 1017.70 1017.54 1017.37 1017.18 1016.96 1016.72 1016.44 1016.12 1015.73 1015.29 1014.79 1014.24 1013.64 1013.02 1012.40 1011.80
Thickness
5609 5611 5612 5613 5615 5615 5616 5615 5612 5609 5607 5606 5607 5608 5609 5610 5612 5614 5615 5617 5618 5619 5620 5621 5622 5621 5620 5620 5618 5617 5616 5615 5613 5612 5610 5607 5605 5603
5602 5603 5604 5605 5607 5608 5608 5608 5608 5605 5602 5600 5600 5601 5601 5602 5603 5604 5605 5607 5608 5609 5610 5611 5611 5611 5610 5610 5609 5607 5607 5605 5604 5602 5600 5598 5596 5594
5594 5596 5597 5598 5599 5600 5601 5601 5601 5600 5596 5593 5593 5593 5594 5594 5595 5595 5596 5598 5599 5599 5600 5601 5601 5601 5600 5600 5599 5598 5597 5596 5594 5593 5591 5589 5588 5586
5587 5589 5589 5591 5592 5593 5593 5594 5593 5593 5591 5588 5586 5585 5585 5586 5587 5588 5588 5589 5590 5590 5591 5591 5591 5591 5591 5590 5590 5589 5588 5587 5586 5584 5583 5581 5580 5578
5579 5580 5582 5583 5584 5585 5586 5586 5586 5586 5585 5583 5579 5578 5578 5579 5579 5579 5581 5581 5582 5583 5583 5583 5583 5583 5583 5583 5582 5581 5580 5579 5579 5578 5576 5575 5573 5571
5572 5573 5575 5576 5577 5578 5579 5579 5579 5578 5577 5576 5573 5571 5571 5572 5572 5571 5572 5573 5575 5576 5577 5576 5576 5577 5577 5576 5576 5575 5574 5574 5573 5572 5571 5569 5568 5566
5565 5567 5569 5571 5572 5573 5574 5573 5573 5572 5571 5569 5568 5566 5566 5566 5565 5565 5566 5566 5568 5570 5570 5570 5571 5571 5572 5572 5571 5571 5571 5570 5569 5568 5567 5565 5564 5563
5559 5561 5563 5565 5567 5568 5568 5569 5569 5568 5566 5565 5563 5563 5562 5562 5562 5562 5561 5561 5562 5565 5564 5565 5566 5567 5568 5568 5569 5569 5568 5567 5566 5565 5564 5563 5562 5561
5553 5555 5558 5559 5561 5561 5562 5563 5564 5564 5564 5563 5561 5560 5560 5560 5560 5559 5558 5558 5559 5562 5561 5561 5563 5563 5566 5567 5567 5567 5567 5566 5565 5564 5563 5562 5561 5559
5549 5550 5551 5553 5555 5556 5557 5558 5558 5559 5560 5559 5559 5559 5559 5559 5559 5558 5557 5557 5558 5560 5560 5558 5560 5562 5566 5567 5567 5567 5567 5566 5565 5564 5562 5561 5560 5559
5545 5546 5547 5549 5551 5553 5553 5553 5553 5554 5556 5556 5557 5557 5558 5558 5558 5556 5555 5554 5554 5557 5558 5558 5559 5560 5563 5566 5568 5567 5567 5566 5565 5564 5563 5562 5561 5559
5540 5542 5544 5546 5548 5549 5549 5549 5549 5550 5551 5553 5554 5555 5556 5557 5558 5557 5556 5553 5553 5554 5558 5557 5558 5559 5560 5564 5566 5567 5566 5566 5565 5564 5564 5563 5562 5559
5538 5539 5541 5543 5545 5546 5547 5547 5548 5549 5549 5550 5551 5553 5555 5556 5558 5558 5558 5557 5555 5555 5560 5559 5558 5557 5557 5559 5563 5566 5566 5566 5565 5565 5565 5565 5563 5560
5537 5538 5540 5542 5544 5545 5546 5547 5548 5549 5548 5549 5550 5551 5553 5555 5557 5559 5560 5559 5560 5560 5562 5561 5559 5558 5556 5556 5558 5563 5565 5566 5565 5565 5566 5566 5564 5563
5538 5540 5541 5543 5545 5546 5548 5549 5549 5549 5548 5548 5549 5551 5554 5556 5557 5558 5560 5560 5561 5562 5563 5563 5562 5561 5558 5557 5558 5560 5562 5566 5567 5566 5566 5565 5565 5565
5539 5541 5543 5545 5546 5548 5549 5550 5551 5551 5550 5550 5551 5553 5555 5556 5557 5558 5558 5559 5559 5561 5565 5566 5565 5563 5561 5561 5560 5561 5562 5563 5567 5567 5567 5567 5567 5566
5540 5541 5542 5544 5545 5547 5550 5551 5553 5553 5552 5553 5554 5555 5556 5557 5558 5559 5558 5558 5557 5559 5562 5566 5568 5566 5566 5564 5562 5563 5564 5565 5567 5568 5566 5565 5568 5568
5541 5541 5542 5544 5546 5548 5550 5553 5555 5556 5557 5557 5557 5557 5558 5559 5559 5560 5560 5559 5559 5561 5562 5564 5565 5564 5564 5566 5567 5566 5566 5567 5569 5568 5566 5563 5566 5569
5542 5543 5545 5547 5550 5552 5553 5555 5557 5559 5560 5560 5560 5560 5561 5561 5561 5562 5562 5561 5562 5563 5565 5565 5564 5561 5559 5562 5570 5571 5568 5569 5568 5567 5567 5564 5565 5569
5546 5548 5550 5552 5554 5556 5558 5559 5561 5562 5563 5563 5563 5564 5564 5563 5564 5564 5564 5564 5564 5564 5565 5566 5565 5564 5563 5565 5567 5571 5573 5570 5568 5567 5567 5567 5566 5568
5553 5555 5556 5558 5560 5561 5563 5564 5564 5565 5566 5566 5566 5567 5567 5566 5566 5567 5566 5567 5565 5565 5565 5567 5571 5571 5569 5566 5564 5568 5572 5573 5570 5567 5566 5563 5562 5561
5561 5562 5564 5565 5566 5567 5568 5568 5568 5568 5569 5569 5569 5570 5569 5569 5568 5569 5568 5568 5567 5567 5568 5570 5572 5570 5566 5564 5565 5567 5569 5572 5572 5570 5567 5564 5559 5558
5568 5569 5570 5571 5572 5572 5572 5572 5572 5572 5572 5572 5572 5572 5571 5571 5571 5570 5570 5569 5569 5568 5568 5568 5569 5567 5566 5565 5564 5565 5566 5567 5567 5566 5567 5567 5564 5562